Home > Weather > Neuwied > Past weeks

Flag for Germany Weather for the Past 2 Weeks in Neuwied, Rhineland-Palatinate, Germany

Now
39 °F

Rain. Broken clouds.


Feels Like: 30 °F
Forecast: 37 / 43 °F
Wind: 16 mph from South

Location: Buechel

Current Time: Feb 9, 2016 at 11:26:31 AM

Latest Report: Feb 9, 2016 at 10:20 AM


Visibility: 4 mi

Pressure: 29.30 "Hg

Humidity: 93%

Dew point: 37 °F

Location of NeuwiedLocation

Historic Weather in Neuwied — Graph

°F

Neuwied Temperature Yesterday

Maximum temperature yesterday: 43 °F (at 8:20 AM)
Minimum temperature yesterday: 39 °F (at 12:20 AM)
Average temperature yesterday: 40 °F

High & Low Weather Summary for the Past Weeks

 TemperatureHumidityPressure
High52 °F (Jan 25, 2:20 PM)100% (Jan 25, 9:20 AM)30.36 "Hg (Jan 25, 9:20 AM)
Low32 °F (Jan 29, 12:20 AM)58% (Jan 25, 2:20 PM)29.36 "Hg (Feb 8, 8:20 AM)
Average41 °F89%30.00 "Hg
* Reported Jan 25 9:20 AM — Feb 9 9:45 AM, Neuwied, Weather by CustomWeather, © 2016

Note: Actual official high and low records may vary slightly from our data, if they occured in-between our weather recording intervals... More about our weather records

Advertising

Neuwied Weather History for the Previous 24 Hours

 ConditionsComfort  
Time TempWeatherWind HumidityBarometerVisibility
9:45 AM
Tue, Feb 9
39 °FRain. Broken clouds.14 mph93%29.36 "Hg4 mi
8:20 AM39 °FChilly.15 mph87%29.45 "HgN/A
7:20 AM39 °FChilly.15 mph87%29.47 "HgN/A
6:20 AM39 °FChilly.15 mph87%29.47 "HgN/A
5:20 AM37 °FChilly.15 mph93%29.50 "HgN/A
4:20 AM37 °FChilly.14 mph93%29.53 "Hg3 mi
3:20 AM37 °FChilly.13 mph93%29.56 "Hg4 mi
2:20 AM39 °FChilly.16 mph87%29.56 "HgN/A
1:20 AM39 °FChilly.20 mph81%29.56 "HgN/A
12:20 AM39 °FChilly.20 mph81%29.53 "HgN/A
11:20 PM
Mon, Feb 8
39 °FChilly.21 mph81%29.53 "Hg6 mi
10:20 PM41 °FQuite cool.18 mph76%29.53 "HgN/A
9:20 PM41 °FQuite cool.18 mph76%29.50 "HgN/A
8:20 PM41 °FQuite cool.21 mph76%29.47 "HgN/A
7:20 PM39 °FChilly.20 mph81%29.47 "HgN/A
6:20 PM39 °FChilly.18 mph87%29.45 "HgN/A
5:20 PM41 °FQuite cool.17 mph81%29.42 "HgN/A
4:20 PM39 °FChilly.21 mph93%29.39 "HgN/A
3:20 PM41 °FQuite cool.16 mph87%29.39 "HgN/A
2:20 PM41 °FQuite cool.15 mph87%29.36 "HgN/A
1:20 PM39 °FChilly.13 mph93%29.36 "Hg2 mi
12:20 PM39 °FChilly.10 mph93%29.39 "Hg1 mi
11:20 AM41 °FQuite cool.20 mph100%29.36 "Hg1 mi
Weather by CustomWeather, © 2016

See weather overviewHow to use our weather pages